Tracking 30116 objects as of 10-Feb-2025
HD Live streaming from Space Station
objects crossing your sky now

STARLINK-32838

Track STARLINK-32838 now!
10-day predictions
STARLINK-32838 is classified as:


NORAD ID: 62827
Int'l Code: 2025-018X
Perigee: 281.7 km
Apogee: 285.1 km
Inclination: 53.1 °
Period: 90.0 minutes
Semi major axis: 6654 km
RCS: Unknown
Launch date: January 24, 2025
Source: United States (US)
Launch site: AIR FORCE WESTERN TEST RANGE (AFWTR)
Your satellite tracking list
Your tracking list is empty




NASA's NSSDC Master Catalog

Two Line Element Set (TLE):
1 62827U 25018X   25040.91667824  .00751737  26797-3  14948-2 0  9997
2 62827  53.1449 342.2817 0002560 171.0215 266.1324 15.99348629  3610
Source of the keplerian elements: AFSPC